Terminal Aerodrome Forecast
Issued by NWS

Home | Current Version | Previous Version | Text Only | Print | Product List | Glossary On
Versions: 1 2 3 4 5 6 7 8 9 10 11 12 13 14 15 16 17 18 19 20 21 22 23 24 25 26 27 28 29 30 31 32 33 34 35 36 37 38 39 40 41 42 43 44 45 46 47 48 49 50
967
FTUS44 KHGX 080950 AAC
TAFLBX
TAF AMD
KLBX 080950Z 0810/0906 02014KT P6SM OVC010
     FM081400 01019G26KT P6SM OVC015
     FM082100 01016G23KT P6SM OVC025
     FM090300 01013KT P6SM SCT060=

USA.gov is the U.S. government's official web portal to all federal, state and local government web resources and services.